• în Republica Moldova
  • Lista ţărilor
  • Pe 7 zile
  • Temperatura apei
  • Hartă satelitară
  • Meteo pe hartă
  • Widget-uri
  • user-avatar
    Intrare

    Meteo pe oră la Sidi Bu-l-Abbas

    Astăzi, 20 Noiembrie, Luni

    Timp Temperatura Precipitaţii Vânt Presiune Umiditate
    00:00 +13°C° 0 mm 1 m/s 723 mmHg 39%
    01:00 +13°C° 0 mm 1 m/s 723 mmHg 38%
    02:00 +13°C° 0 mm 1 m/s 723 mmHg 38%
    03:00 +12°C° 0 mm 1 m/s 723 mmHg 38%
    04:00 +12°C° 0 mm 1 m/s 723 mmHg 38%
    05:00 +12°C° 0 mm 1 m/s 723 mmHg 38%
    06:00 +12°C° 0 mm 1 m/s 723 mmHg 38%
    07:00 +14°C° 0 mm 1 m/s 724 mmHg 34%
    08:00 +16°C° 0 mm 1 m/s 724 mmHg 30%
    09:00 +19°C° 0 mm 1 m/s 725 mmHg 26%
    10:00 +20°C° 0 mm 1 m/s 725 mmHg 24%
    11:00 +21°C° 0 mm 1 m/s 725 mmHg 21%
    12:00 +22°C° 0 mm 1 m/s 725 mmHg 19%
    13:00 +22°C° 0 mm 1 m/s 725 mmHg 19%
    14:00 +23°C° 0 mm 1 m/s 725 mmHg 18%
    15:00 +23°C° 0 mm 2 m/s 724 mmHg 18%
    16:00 +20°C° 0 mm 2 m/s 724 mmHg 22%
    17:00 +18°C° 0 mm 2 m/s 724 mmHg 25%
    18:00 +17°C° 0 mm 2 m/s 724 mmHg 29%
    19:00 +16°C° 0 mm 1 m/s 724 mmHg 31%
    20:00 +15°C° 0 mm 1 m/s 724 mmHg 32%
    21:00 +14°C° 0 mm 1 m/s 724 mmHg 33%
    22:00 +14°C° 0 mm 1 m/s 724 mmHg 33%
    23:00 +14°C° 0 mm 1 m/s 724 mmHg 32%

    Mâine, 21 Noiembrie, Marţi

    Timp Temperatura Precipitaţii Vânt Presiune Umiditate
    00:00 +13°C° 0 mm 1 m/s 724 mmHg 32%
    01:00 +13°C° 0 mm 1 m/s 724 mmHg 32%
    02:00 +13°C° 0 mm 1 m/s 723 mmHg 31%
    03:00 +12°C° 0 mm 1 m/s 723 mmHg 31%
    04:00 +12°C° 0 mm 1 m/s 723 mmHg 31%
    05:00 +12°C° 0 mm 1 m/s 723 mmHg 30%
    06:00 +12°C° 0 mm 2 m/s 723 mmHg 30%
    07:00 +14°C° 0 mm 2 m/s 724 mmHg 27%
    08:00 +16°C° 0 mm 2 m/s 724 mmHg 24%
    09:00 +17°C° 0 mm 2 m/s 724 mmHg 21%
    10:00 +20°C° 0 mm 1 m/s 724 mmHg 19%
    11:00 +21°C° 0 mm 1 m/s 724 mmHg 18%
    12:00 +22°C° 0 mm 1 m/s 724 mmHg 16%
    13:00 +22°C° 0 mm 1 m/s 724 mmHg 16%
    14:00 +22°C° 0 mm 1 m/s 723 mmHg 16%
    15:00 +22°C° 0 mm 1 m/s 723 mmHg 16%
    16:00 +21°C° 0 mm 1 m/s 723 mmHg 19%
    17:00 +19°C° 0 mm 1 m/s 722 mmHg 23%
    18:00 +16°C° 0 mm 1 m/s 722 mmHg 27%
    19:00 +16°C° 0 mm 1 m/s 722 mmHg 27%
    20:00 +15°C° 0 mm 1 m/s 722 mmHg 28%
    21:00 +15°C° 0 mm 1 m/s 722 mmHg 28%
    22:00 +15°C° 0 mm 1 m/s 722 mmHg 28%
    23:00 +14°C° 0 mm 1 m/s 722 mmHg 28%

    Poimâine, 22 Noiembrie, Miercuri

    Timp Temperatura Precipitaţii Vânt Presiune Umiditate
    00:00 +14°C° 0 mm 1 m/s 722 mmHg 28%
    01:00 +13°C° 0 mm 1 m/s 722 mmHg 28%
    02:00 +13°C° 0 mm 1 m/s 722 mmHg 28%
    03:00 +13°C° 0 mm 1 m/s 721 mmHg 28%
    04:00 +12°C° 0 mm 1 m/s 721 mmHg 28%
    05:00 +12°C° 0 mm 1 m/s 721 mmHg 29%
    06:00 +12°C° 0 mm 1 m/s 721 mmHg 29%
    07:00 +14°C° 0 mm 1 m/s 721 mmHg 26%
    08:00 +15°C° 0 mm 1 m/s 722 mmHg 23%
    09:00 +17°C° 0 mm 2 m/s 722 mmHg 21%
    10:00 +19°C° 0 mm 1 m/s 722 mmHg 19%
    11:00 +20°C° 0 mm 1 m/s 722 mmHg 17%
    12:00 +21°C° 0 mm 1 m/s 722 mmHg 16%
    13:00 +21°C° 0 mm 2 m/s 721 mmHg 16%
    14:00 +21°C° 0 mm 2 m/s 721 mmHg 17%
    15:00 +21°C° 0 mm 3 m/s 721 mmHg 17%
    16:00 +19°C° 0 mm 2 m/s 721 mmHg 22%
    17:00 +18°C° 0 mm 1 m/s 721 mmHg 27%
    18:00 +15°C° 0 mm 1 m/s 721 mmHg 33%
    19:00 +15°C° 0 mm 1 m/s 721 mmHg 33%
    20:00 +14°C° 0 mm 1 m/s 721 mmHg 33%
    21:00 +14°C° 0 mm 1 m/s 722 mmHg 33%
    22:00 +13°C° 0 mm 1 m/s 722 mmHg 32%
    23:00 +13°C° 0 mm 1 m/s 722 mmHg 32%

    23 Noiembrie, Joi

    Timp Temperatura Precipitaţii Vânt Presiune Umiditate
    00:00 +12°C° 0 mm 1 m/s 722 mmHg 32%
    01:00 +12°C° 0 mm 1 m/s 721 mmHg 32%
    02:00 +12°C° 0 mm 1 m/s 721 mmHg 33%
    03:00 +11°C° 0 mm 1 m/s 721 mmHg 33%
    04:00 +11°C° 0 mm 1 m/s 721 mmHg 33%
    05:00 +11°C° 0 mm 1 m/s 722 mmHg 33%
    06:00 +10°C° 0 mm 1 m/s 722 mmHg 33%
    07:00 +13°C° 0 mm 1 m/s 722 mmHg 29%
    08:00 +15°C° 0 mm 1 m/s 723 mmHg 24%
    09:00 +18°C° 0 mm 1 m/s 724 mmHg 20%
    10:00 +19°C° 0 mm 1 m/s 724 mmHg 18%
    11:00 +20°C° 0 mm 1 m/s 724 mmHg 16%
    12:00 +19°C° 0 mm 0 m/s 724 mmHg 14%
    13:00 +22°C° 0 mm 1 m/s 724 mmHg 14%
    14:00 +22°C° 0 mm 1 m/s 724 mmHg 14%
    15:00 +21°C° 0 mm 2 m/s 723 mmHg 14%
    16:00 +19°C° 0 mm 2 m/s 723 mmHg 17%
    17:00 +17°C° 0 mm 2 m/s 723 mmHg 20%
    18:00 +16°C° 0 mm 2 m/s 723 mmHg 24%
    19:00 +15°C° 0 mm 2 m/s 723 mmHg 24%
    20:00 +15°C° 0 mm 2 m/s 724 mmHg 24%
    21:00 +14°C° 0 mm 1 m/s 724 mmHg 25%
    22:00 +14°C° 0 mm 2 m/s 724 mmHg 24%
    23:00 +14°C° 0 mm 2 m/s 724 mmHg 24%

    24 Noiembrie, Vineri

    Timp Temperatura Precipitaţii Vânt Presiune Umiditate
    00:00 +13°C° 0 mm 2 m/s 723 mmHg 24%
    01:00 +13°C° 0 mm 2 m/s 723 mmHg 24%
    02:00 +13°C° 0 mm 2 m/s 723 mmHg 24%
    03:00 +13°C° 0 mm 2 m/s 723 mmHg 25%
    04:00 +12°C° 0 mm 2 m/s 723 mmHg 25%
    05:00 +12°C° 0 mm 2 m/s 723 mmHg 25%
    06:00 +12°C° 0 mm 2 m/s 723 mmHg 25%
    07:00 +13°C° 0 mm 3 m/s 723 mmHg 23%
    08:00 +14°C° 0 mm 3 m/s 724 mmHg 21%
    09:00 +17°C° 0 mm 3 m/s 724 mmHg 20%
    10:00 +19°C° 0 mm 2 m/s 724 mmHg 17%
    11:00 +20°C° 0 mm 2 m/s 724 mmHg 15%
    12:00 +23°C° 0 mm 2 m/s 724 mmHg 13%
    13:00 +23°C° 0 mm 2 m/s 723 mmHg 13%
    14:00 +23°C° 0 mm 2 m/s 723 mmHg 13%
    15:00 +23°C° 0 mm 2 m/s 723 mmHg 13%
    16:00 +20°C° 0 mm 2 m/s 723 mmHg 16%
    17:00 +19°C° 0 mm 1 m/s 722 mmHg 20%
    18:00 +16°C° 0 mm 1 m/s 722 mmHg 23%
    19:00 +16°C° 0 mm 1 m/s 723 mmHg 23%
    20:00 +15°C° 0 mm 1 m/s 723 mmHg 24%
    21:00 +15°C° 0 mm 1 m/s 723 mmHg 24%
    22:00 +15°C° 0 mm 1 m/s 723 mmHg 24%
    23:00 +14°C° 0 mm 2 m/s 723 mmHg 24%

    25 Noiembrie, Sâmbătă

    Timp Temperatura Precipitaţii Vânt Presiune Umiditate
    00:00 +14°C° 0 mm 2 m/s 723 mmHg 24%
    01:00 +14°C° 0 mm 2 m/s 723 mmHg 25%
    02:00 +14°C° 0 mm 2 m/s 723 mmHg 26%
    03:00 +13°C° 0 mm 2 m/s 723 mmHg 26%
    04:00 +13°C° 0 mm 2 m/s 723 mmHg 27%
    05:00 +12°C° 0 mm 3 m/s 723 mmHg 27%
    06:00 +12°C° 0 mm 3 m/s 723 mmHg 27%
    07:00 +13°C° 0 mm 3 m/s 723 mmHg 25%
    08:00 +16°C° 0 mm 3 m/s 723 mmHg 24%
    09:00 +17°C° 0 mm 3 m/s 724 mmHg 22%
    10:00 +19°C° 0 mm 3 m/s 724 mmHg 20%
    11:00 +20°C° 0 mm 3 m/s 723 mmHg 17%
    12:00 +22°C° 0 mm 3 m/s 723 mmHg 15%
    13:00 +22°C° 0 mm 3 m/s 723 mmHg 15%
    14:00 +22°C° 0 mm 3 m/s 723 mmHg 15%
    15:00 +22°C° 0 mm 3 m/s 722 mmHg 15%
    16:00 +21°C° 0 mm 2 m/s 722 mmHg 18%
    17:00 +19°C° 0 mm 2 m/s 722 mmHg 20%
    18:00 +18°C° 0 mm 2 m/s 722 mmHg 23%
    19:00 +18°C° 0 mm 2 m/s 723 mmHg 23%
    20:00 +17°C° 0 mm 2 m/s 723 mmHg 23%
    21:00 +17°C° 0 mm 2 m/s 723 mmHg 23%
    22:00 +17°C° 0 mm 2 m/s 723 mmHg 24%
    23:00 +16°C° 0 mm 2 m/s 723 mmHg 25%
    Arată mai mult